| time (UTC) | temp F | wind direction | speed MPH | gust MPH | rain 1hr in | rain 24hr in | rain mn in | humidity % | barometer mb |
| 20260831044557 | 52 | 246 | 0.0 | 1.0 | 0.00 | 0.13 | 0.12 | 90 | 936.6 |
| 20260831043052 | 53 | 246 | 0.0 | 1.0 | 0.00 | 0.13 | 0.12 | 89 | 936.6 |
| 20260831041559 | 53 | 246 | 0.0 | 1.0 | 0.00 | 0.13 | 0.12 | 88 | 936.6 |
| 20260831040048 | 54 | 246 | 0.0 | 0.0 | 0.00 | 0.13 | 0.12 | 87 | 936.7 |
| 20260831034545 | 55 | 246 | 0.0 | 0.0 | 0.00 | 0.13 | 0.12 | 85 | 937.0 |
| 20260831033042 | 56 | 246 | 0.0 | 2.0 | 0.00 | 0.13 | 0.12 | 85 | 937.1 |
| 20260831031540 | 56 | 251 | 0.0 | 2.0 | 0.00 | 0.13 | 0.12 | 84 | 937.1 |
| 20260831030037 | 57 | 273 | 0.0 | 1.0 | 0.00 | 0.13 | 0.12 | 81 | 936.9 |
| 20260831024534 | 59 | 273 | 0.0 | 1.0 | 0.00 | 0.13 | 0.12 | 78 | 936.7 |
| 20260831023028 | 60 | 273 | 0.0 | 0.0 | 0.00 | 0.13 | 0.12 | 76 | 936.6 |
| 20260831021533 | 61 | 273 | 0.0 | 2.0 | 0.00 | 0.13 | 0.12 | 74 | 936.5 |
| 20260831020023 | 62 | 274 | 0.0 | 1.0 | 0.00 | 0.13 | 0.12 | 72 | 936.4 |
| 20260831014525 | 63 | 277 | 0.0 | 3.0 | 0.00 | 0.13 | 0.12 | 70 | 936.4 |
| 20260831013026 | 64 | 272 | 0.0 | 3.0 | 0.00 | 0.13 | 0.12 | 69 | 936.4 |
| 20260831011520 | 65 | 276 | 1.0 | 8.0 | 0.00 | 0.13 | 0.12 | 69 | 936.3 |
| 20260831010022 | 66 | 284 | 3.0 | 10.0 | 0.00 | 0.13 | 0.12 | 70 | 936.4 |
| 20260831004519 | 66 | 275 | 0.0 | 4.0 | 0.00 | 0.13 | 0.12 | 78 | 936.5 |
| 20260831003017 | 65 | 272 | 0.0 | 3.0 | 0.00 | 0.13 | 0.12 | 78 | 936.4 |
| 20260831001516 | 64 | 275 | 0.0 | 2.0 | 0.00 | 0.13 | 0.12 | 79 | 936.5 |
| 20260831000033 | 64 | 262 | 0.0 | 2.0 | 0.00 | 0.13 | 0.12 | 79 | 936.7 |
| 20260830234516 | 64 | 256 | 0.0 | 2.0 | 0.00 | 0.13 | 0.12 | 79 | 936.3 |
| 20260830233020 | 64 | 281 | 0.0 | 1.0 | 0.00 | 0.13 | 0.12 | 78 | 936.2 |
| 20260830231514 | 65 | 264 | 1.0 | 5.0 | 0.00 | 0.13 | 0.12 | 77 | 936.0 |
| 20260830230015 | 65 | 242 | 1.0 | 5.0 | 0.00 | 0.13 | 0.12 | 77 | 936.2 |
| 20260830224513 | 66 | 282 | 2.0 | 11.0 | 0.00 | 0.13 | 0.12 | 74 | 936.1 |
| 20260830223013 | 66 | 278 | 2.0 | 11.0 | 0.01 | 0.13 | 0.12 | 75 | 935.9 |
| 20260830221511 | 65 | 250 | 3.0 | 12.0 | 0.09 | 0.13 | 0.12 | 79 | 936.0 |
| 20260830220013 | 63 | 276 | 4.0 | 11.0 | 0.09 | 0.13 | 0.12 | 86 | 936.2 |
| 20260830214510 | 62 | 266 | 2.0 | 8.0 | 0.09 | 0.13 | 0.12 | 90 | 936.1 |
| 20260830213009 | 64 | 267 | 2.0 | 12.0 | 0.07 | 0.11 | 0.10 | 81 | 936.7 |
| 20260830211513 | 70 | 290 | 4.0 | 13.0 | 0.00 | 0.04 | 0.03 | 70 | 935.8 |
| 20260830210006 | 71 | 286 | 6.0 | 14.0 | 0.00 | 0.04 | 0.03 | 69 | 935.0 |
| 20260830204506 | 71 | 288 | 6.0 | 17.0 | 0.00 | 0.04 | 0.03 | 72 | 934.8 |
| 20260830203005 | 70 | 264 | 4.0 | 10.0 | 0.00 | 0.04 | 0.03 | 71 | 935.1 |
| 20260830201503 | 70 | 278 | 2.0 | 8.0 | 0.00 | 0.04 | 0.03 | 70 | 935.6 |
| 20260830200003 | 70 | 309 | 3.0 | 8.0 | 0.00 | 0.04 | 0.03 | 75 | 935.1 |
| 20260830194503 | 71 | 275 | 1.0 | 8.0 | 0.00 | 0.04 | 0.03 | 75 | 935.1 |
| 20260830193003 | 70 | 283 | 1.0 | 9.0 | 0.00 | 0.04 | 0.03 | 79 | 935.2 |
| 20260830191502 | 70 | 285 | 3.0 | 7.0 | 0.00 | 0.04 | 0.03 | 79 | 934.9 |
| 20260830190001 | 71 | 295 | 3.0 | 6.0 | 0.00 | 0.04 | 0.03 | 78 | 934.9 |
| 20260830184601 | 72 | 274 | 2.0 | 8.0 | 0.00 | 0.04 | 0.03 | 78 | 934.9 |
| 20260830183101 | 72 | 274 | 4.0 | 9.0 | 0.00 | 0.04 | 0.03 | 78 | 934.7 |
| 20260830181600 | 72 | 295 | 4.0 | 10.0 | 0.00 | 0.04 | 0.03 | 78 | 934.3 |
| 20260830180059 | 73 | 277 | 3.0 | 10.0 | 0.00 | 0.04 | 0.03 | 77 | 934.3 |
| 20260830174558 | 73 | 281 | 3.0 | 8.0 | 0.00 | 0.04 | 0.03 | 78 | 934.4 |
| 20260830173057 | 72 | 284 | 0.0 | 5.0 | 0.01 | 0.04 | 0.03 | 79 | 934.5 |
| 20260830171606 | 72 | 281 | 2.0 | 7.0 | 0.01 | 0.04 | 0.03 | 78 | 934.6 |
| 20260830170058 | 73 | 284 | 1.0 | 7.0 | 0.01 | 0.04 | 0.03 | 77 | 934.6 |
| 20260830164603 | 73 | 301 | 4.0 | 8.0 | 0.01 | 0.04 | 0.03 | 75 | 934.5 |
| 20260830163054 | 74 | 250 | 2.0 | 5.0 | 0.00 | 0.03 | 0.02 | 74 | 934.4 |
| 20260830161551 | 72 | 275 | 0.0 | 3.0 | 0.00 | 0.03 | 0.02 | 77 | 934.5 |
| 20260830160048 | 71 | 297 | 0.0 | 2.0 | 0.00 | 0.03 | 0.02 | 79 | 934.6 |
| 20260830154548 | 70 | 297 | 0.0 | 3.0 | 0.00 | 0.03 | 0.02 | 80 | 934.8 |
| 20260830153049 | 69 | 298 | 0.0 | 2.0 | 0.00 | 0.03 | 0.02 | 80 | 934.9 |
| 20260830151548 | 69 | 298 | 0.0 | 2.0 | 0.00 | 0.03 | 0.02 | 80 | 935.1 |
| 20260830150047 | 69 | 40 | 0.0 | 1.0 | 0.00 | 0.03 | 0.02 | 82 | 934.7 |
| 20260830144546 | 69 | 42 | 0.0 | 0.0 | 0.00 | 0.03 | 0.02 | 84 | 934.7 |
| 20260830143103 | 68 | 42 | 0.0 | 1.0 | 0.00 | 0.03 | 0.02 | 90 | 934.7 |
| 20260830141545 | 67 | 42 | 0.0 | 1.0 | 0.00 | 0.03 | 0.02 | 94 | 934.5 |
| 20260830140049 | 66 | 42 | 0.0 | 2.0 | 0.00 | 0.03 | 0.02 | 96 | 934.7 |
| 20260830134547 | 64 | 41 | 0.0 | 1.0 | 0.00 | 0.03 | 0.02 | 96 | 934.6 |
| 20260830133044 | 63 | 41 | 0.0 | 0.0 | 0.00 | 0.03 | 0.02 | 97 | 934.6 |
| 20260830131542 | 62 | 41 | 0.0 | 1.0 | 0.00 | 0.03 | 0.02 | 96 | 934.7 |
| 20260830130100 | 62 | 41 | 0.0 | 0.0 | 0.00 | 0.03 | 0.02 | 95 | 934.6 |
| 20260830124540 | 63 | 69 | 0.0 | 1.0 | 0.00 | 0.03 | 0.02 | 95 | 934.6 |
| 20260830123041 | 64 | 74 | 0.0 | 1.0 | 0.00 | 0.03 | 0.02 | 95 | 934.5 |
| 20260830121535 | 64 | 74 | 0.0 | 1.0 | 0.00 | 0.03 | 0.02 | 95 | 934.5 |
| 20260830120033 | 65 | 74 | 0.0 | 1.0 | 0.00 | 0.03 | 0.02 | 96 | 934.5 |
| 20260830114532 | 65 | 73 | 0.0 | 2.0 | 0.00 | 0.03 | 0.02 | 95 | 934.5 |
| 20260830113034 | 65 | 76 | 0.0 | 2.0 | 0.00 | 0.03 | 0.02 | 95 | 934.5 |
| 20260830111530 | 65 | 76 | 0.0 | 3.0 | 0.00 | 0.03 | 0.02 | 94 | 934.4 |
| 20260830110030 | 65 | 67 | 0.0 | 2.0 | 0.00 | 0.03 | 0.02 | 94 | 934.3 |
| 20260830104526 | 65 | 68 | 0.0 | 2.0 | 0.00 | 0.03 | 0.02 | 94 | 934.6 |
| 20260830103024 | 65 | 71 | 0.0 | 3.0 | 0.00 | 0.03 | 0.02 | 93 | 934.7 |
| 20260830101521 | 66 | 48 | 0.0 | 2.0 | 0.00 | 0.03 | 0.02 | 93 | 934.8 |
| 20260830100019 | 66 | 37 | 0.0 | 2.0 | 0.00 | 0.03 | 0.02 | 92 | 935.2 |
| 20260830094526 | 66 | 26 | 0.0 | 1.0 | 0.00 | 0.03 | 0.02 | 92 | 935.3 |
| 20260830093019 | 66 | 27 | 0.0 | 2.0 | 0.01 | 0.03 | 0.02 | 92 | 935.6 |
| 20260830091516 | 66 | 36 | 0.0 | 2.0 | 0.01 | 0.03 | 0.02 | 91 | 935.6 |
| 20260830090013 | 66 | 40 | 0.0 | 2.0 | 0.02 | 0.03 | 0.02 | 89 | 935.4 |
| 20260830084510 | 67 | 16 | 0.0 | 2.0 | 0.02 | 0.03 | 0.02 | 86 | 935.7 |
| 20260830083008 | 68 | 43 | 0.0 | 2.0 | 0.01 | 0.02 | 0.01 | 83 | 935.9 |
| 20260830081505 | 69 | 46 | 0.0 | 2.0 | 0.01 | 0.02 | 0.01 | 79 | 936.0 |
| 20260830080100 | 70 | 48 | 0.0 | 2.0 | 0.00 | 0.01 | 0.00 | 76 | 936.0 |
| 20260830080001 | 70 | 48 | 0.0 | 2.0 | 0.00 | 0.01 | 0.00 | 76 | 936.0 |
| 20260830074610 | 70 | 43 | 0.0 | 1.0 | 0.00 | 0.01 | 0.00 | 76 | 935.8 |
| 20260830073101 | 70 | 44 | 0.0 | 2.0 | 0.00 | 0.01 | 0.00 | 73 | 935.7 |
| 20260830071559 | 71 | 67 | 0.0 | 1.0 | 0.00 | 0.01 | 0.00 | 75 | 935.7 |
| 20260830070054 | 72 | 67 | 0.0 | 2.0 | 0.00 | 0.01 | 0.00 | 75 | 935.8 |
| 20260830064551 | 71 | 27 | 0.0 | 1.0 | 0.00 | 0.01 | 0.00 | 74 | 936.0 |
| 20260830063050 | 71 | 24 | 0.0 | 2.0 | 0.00 | 0.01 | 0.00 | 74 | 936.2 |
| 20260830061548 | 71 | 24 | 0.0 | 1.0 | 0.00 | 0.01 | 0.00 | 72 | 936.3 |
| 20260830060053 | 71 | 10 | 0.0 | 2.0 | 0.00 | 0.01 | 0.00 | 70 | 936.4 |
| 20260830054552 | 71 | 304 | 1.0 | 2.0 | 0.01 | 0.01 | 0.01 | 65 | 936.7 |
| 20260830053049 | 70 | 292 | 0.0 | 7.0 | 0.01 | 0.01 | 0.01 | 69 | 936.4 |
| 20260830051544 | 72 | 313 | 0.0 | 5.0 | 0.01 | 0.01 | 0.01 | 62 | 936.2 |
| 20260830050043 | 72 | 140 | 0.0 | 2.0 | 0.01 | 0.01 | 0.01 | 58 | 935.8 |